When you browse on this site, cookies collect data to enhance your experience and personalize the content and advertising you see.
Visit our Privacy Policy to learn more. By continuing to use the site, you agree to this use of cookies and data.
  • In Spain
  • List of Countries
  • For 7 days
  • Water Temperature
  • Weather Map
  • Weather Widgets
  • user-avatar
    Login

    Hourly Weather Loja

    Today, 28 March, Saturday

    Time Temperature Precipitation Wind Pressure Humidity
    00:00 +8°C° 0 mm 0 mps 706 mmHg 91%
    01:00 +8°C° 0.1 mm 0 mps 706 mmHg 90%
    02:00 +8°C° 0.1 mm 0 mps 706 mmHg 89%
    03:00 +8°C° 0.1 mm 0 mps 706 mmHg 88%
    04:00 +8°C° 0 mm 1 mps 706 mmHg 89%
    05:00 +8°C° 0 mm 1 mps 707 mmHg 89%
    06:00 +8°C° 0 mm 1 mps 707 mmHg 91%
    07:00 +9°C° 0.1 mm 1 mps 708 mmHg 85%
    08:00 +11°C° 0.1 mm 1 mps 708 mmHg 78%
    09:00 +12°C° 0.1 mm 1 mps 709 mmHg 72%
    10:00 +13°C° 0.1 mm 1 mps 709 mmHg 70%
    11:00 +13°C° 0.1 mm 2 mps 709 mmHg 67%
    12:00 +14°C° 0 mm 2 mps 709 mmHg 67%
    13:00 +14°C° 0.1 mm 2 mps 709 mmHg 68%
    14:00 +14°C° 0.1 mm 2 mps 709 mmHg 69%
    15:00 +14°C° 0.1 mm 2 mps 709 mmHg 70%
    16:00 +13°C° 0.1 mm 2 mps 709 mmHg 73%
    17:00 +13°C° 0.1 mm 2 mps 709 mmHg 76%
    18:00 +12°C° 0.1 mm 2 mps 709 mmHg 79%
    19:00 +10°C° 0 mm 2 mps 709 mmHg 83%
    20:00 +9°C° 0 mm 2 mps 710 mmHg 87%
    21:00 +9°C° 0 mm 1 mps 710 mmHg 91%
    22:00 +8°C° 0 mm 1 mps 710 mmHg 91%
    23:00 +8°C° 0 mm 1 mps 710 mmHg 91%

    Tomorrow, 30 March, Monday

    Time Temperature Precipitation Wind Pressure Humidity
    00:00 +10°C° 0 mm 0 mps 708 mmHg 73%
    01:00 +9°C° 0 mm 0 mps 707 mmHg 75%
    02:00 +9°C° 0 mm 1 mps 707 mmHg 78%
    03:00 +9°C° 0 mm 1 mps 706 mmHg 81%
    04:00 +9°C° 0 mm 1 mps 706 mmHg 83%
    05:00 +8°C° 0 mm 1 mps 706 mmHg 86%
    06:00 +8°C° 0 mm 1 mps 705 mmHg 88%
    07:00 +10°C° 0 mm 1 mps 706 mmHg 83%
    08:00 +11°C° 0 mm 1 mps 706 mmHg 77%
    09:00 +13°C° 0 mm 1 mps 706 mmHg 71%
    10:00 +14°C° 0.1 mm 2 mps 706 mmHg 67%
    11:00 +15°C° 0.1 mm 2 mps 706 mmHg 62%
    12:00 +16°C° 0.1 mm 2 mps 706 mmHg 58%
    13:00 +16°C° 0.1 mm 2 mps 705 mmHg 58%
    14:00 +16°C° 0.1 mm 2 mps 705 mmHg 59%
    15:00 +16°C° 0.1 mm 2 mps 705 mmHg 59%
    16:00 +16°C° 0.2 mm 2 mps 704 mmHg 64%
    17:00 +15°C° 0.2 mm 2 mps 704 mmHg 69%
    18:00 +14°C° 0.2 mm 2 mps 703 mmHg 74%
    19:00 +13°C° 0.3 mm 1 mps 704 mmHg 78%
    20:00 +13°C° 0.3 mm 1 mps 704 mmHg 82%
    21:00 +12°C° 0.3 mm 1 mps 704 mmHg 86%
    22:00 +11°C° 0.1 mm 1 mps 704 mmHg 88%
    23:00 +11°C° 0.1 mm 1 mps 704 mmHg 90%

    Day after tomorrow, 31 March, Tuesday

    Time Temperature Precipitation Wind Pressure Humidity
    00:00 +10°C° 0.1 mm 1 mps 703 mmHg 93%
    01:00 +10°C° 0.2 mm 1 mps 703 mmHg 92%
    02:00 +10°C° 0.2 mm 1 mps 703 mmHg 92%
    03:00 +10°C° 0.2 mm 1 mps 703 mmHg 92%
    04:00 +10°C° 1.6 mm 1 mps 702 mmHg 93%
    05:00 +10°C° 1.6 mm 1 mps 702 mmHg 93%
    06:00 +10°C° 1.6 mm 1 mps 702 mmHg 94%
    07:00 +9°C° 0.7 mm 2 mps 702 mmHg 92%
    08:00 +9°C° 0.7 mm 3 mps 702 mmHg 91%
    09:00 +9°C° 0.7 mm 3 mps 702 mmHg 89%
    10:00 +9°C° 2.4 mm 3 mps 702 mmHg 89%
    11:00 +9°C° 2.4 mm 2 mps 702 mmHg 89%
    12:00 +9°C° 2.4 mm 2 mps 702 mmHg 89%
    13:00 +9°C° 3.3 mm 2 mps 702 mmHg 90%
    14:00 +9°C° 3.3 mm 2 mps 702 mmHg 91%
    15:00 +10°C° 3.3 mm 1 mps 702 mmHg 92%
    16:00 +10°C° 0.9 mm 1 mps 702 mmHg 93%
    17:00 +10°C° 0.9 mm 1 mps 702 mmHg 93%
    18:00 +10°C° 0.9 mm 1 mps 702 mmHg 94%
    19:00 +10°C° 0.2 mm 1 mps 702 mmHg 94%
    20:00 +10°C° 0.2 mm 1 mps 703 mmHg 94%
    21:00 +10°C° 0.2 mm 1 mps 703 mmHg 95%
    22:00 +10°C° 0.3 mm 1 mps 703 mmHg 95%
    23:00 +10°C° 0.3 mm 1 mps 703 mmHg 95%

    31 March, Tuesday

    Time Temperature Precipitation Wind Pressure Humidity
    00:00 +10°C° 0.1 mm 1 mps 703 mmHg 93%
    01:00 +10°C° 0.2 mm 1 mps 703 mmHg 92%
    02:00 +10°C° 0.2 mm 1 mps 703 mmHg 92%
    03:00 +10°C° 0.2 mm 1 mps 703 mmHg 92%
    04:00 +10°C° 1.6 mm 1 mps 702 mmHg 93%
    05:00 +10°C° 1.6 mm 1 mps 702 mmHg 93%
    06:00 +10°C° 1.6 mm 1 mps 702 mmHg 94%
    07:00 +9°C° 0.7 mm 2 mps 702 mmHg 92%
    08:00 +9°C° 0.7 mm 3 mps 702 mmHg 91%
    09:00 +9°C° 0.7 mm 3 mps 702 mmHg 89%
    10:00 +9°C° 2.4 mm 3 mps 702 mmHg 89%
    11:00 +9°C° 2.4 mm 2 mps 702 mmHg 89%
    12:00 +9°C° 2.4 mm 2 mps 702 mmHg 89%
    13:00 +9°C° 3.3 mm 2 mps 702 mmHg 90%
    14:00 +9°C° 3.3 mm 2 mps 702 mmHg 91%
    15:00 +10°C° 3.3 mm 1 mps 702 mmHg 92%
    16:00 +10°C° 0.9 mm 1 mps 702 mmHg 93%
    17:00 +10°C° 0.9 mm 1 mps 702 mmHg 93%
    18:00 +10°C° 0.9 mm 1 mps 702 mmHg 94%
    19:00 +10°C° 0.2 mm 1 mps 702 mmHg 94%
    20:00 +10°C° 0.2 mm 1 mps 703 mmHg 94%
    21:00 +10°C° 0.2 mm 1 mps 703 mmHg 95%
    22:00 +10°C° 0.3 mm 1 mps 703 mmHg 95%
    23:00 +10°C° 0.3 mm 1 mps 703 mmHg 95%

    1 April, Wednesday

    Time Temperature Precipitation Wind Pressure Humidity
    00:00 +9°C° 0.3 mm 1 mps 703 mmHg 96%
    01:00 +10°C° 0.2 mm 1 mps 703 mmHg 95%
    02:00 +10°C° 0.2 mm 1 mps 702 mmHg 95%
    03:00 +10°C° 0.2 mm 1 mps 702 mmHg 95%
    04:00 +10°C° 1.2 mm 1 mps 702 mmHg 95%
    05:00 +10°C° 1.2 mm 1 mps 701 mmHg 96%
    06:00 +10°C° 1.2 mm 1 mps 701 mmHg 96%
    07:00 +9°C° 1.2 mm 2 mps 701 mmHg 94%
    08:00 +9°C° 1.2 mm 2 mps 701 mmHg 93%
    09:00 +9°C° 1.2 mm 2 mps 702 mmHg 91%
    10:00 +10°C° 0.9 mm 3 mps 702 mmHg 88%
    11:00 +11°C° 0.9 mm 4 mps 702 mmHg 84%
    12:00 +12°C° 0.9 mm 5 mps 702 mmHg 81%
    13:00 +10°C° 1.5 mm 5 mps 702 mmHg 83%
    14:00 +10°C° 1.5 mm 4 mps 702 mmHg 86%
    15:00 +10°C° 1.5 mm 4 mps 702 mmHg 88%
    16:00 +9°C° 0.8 mm 3 mps 702 mmHg 88%
    17:00 +8°C° 0.8 mm 3 mps 702 mmHg 88%
    18:00 +8°C° 0.8 mm 2 mps 702 mmHg 89%
    19:00 +7°C° 0 mm 2 mps 703 mmHg 90%
    20:00 +6°C° 0 mm 2 mps 703 mmHg 91%
    21:00 +7°C° 0 mm 1 mps 704 mmHg 92%
    22:00 +7°C° 0 mm 1 mps 704 mmHg 91%
    23:00 +7°C° 0 mm 1 mps 704 mmHg 90%

    2 April, Thursday

    Time Temperature Precipitation Wind Pressure Humidity
    00:00 +7°C° 0 mm 1 mps 705 mmHg 88%
    01:00 +6°C° 0 mm 1 mps 704 mmHg 87%
    02:00 +6°C° 0 mm 1 mps 704 mmHg 87%
    03:00 +5°C° 0 mm 1 mps 703 mmHg 86%
    04:00 +5°C° 0 mm 1 mps 703 mmHg 85%
    05:00 +5°C° 0 mm 1 mps 703 mmHg 83%
    06:00 +5°C° 0 mm 1 mps 703 mmHg 82%
    07:00 +6°C° 0 mm 1 mps 704 mmHg 76%
    08:00 +8°C° 0 mm 1 mps 704 mmHg 70%
    09:00 +9°C° 0 mm 1 mps 704 mmHg 64%
    10:00 +10°C° 0.1 mm 1 mps 704 mmHg 63%
    11:00 +10°C° 0.1 mm 1 mps 704 mmHg 63%
    12:00 +11°C° 0.1 mm 1 mps 704 mmHg 62%
    13:00 +10°C° 0.5 mm 2 mps 704 mmHg 64%
    14:00 +10°C° 0.5 mm 3 mps 704 mmHg 66%
    15:00 +10°C° 0.5 mm 3 mps 704 mmHg 68%
    16:00 +9°C° 0.8 mm 3 mps 704 mmHg 72%
    17:00 +9°C° 0.8 mm 3 mps 704 mmHg 77%
    18:00 +8°C° 0.8 mm 3 mps 704 mmHg 81%
    19:00 +7°C° 0.1 mm 2 mps 704 mmHg 84%
    20:00 +7°C° 0.1 mm 2 mps 705 mmHg 87%
    21:00 +6°C° 0.1 mm 2 mps 705 mmHg 89%
    22:00 +6°C° 0 mm 2 mps 705 mmHg 91%
    23:00 +6°C° 0 mm 2 mps 705 mmHg 92%
    Show more